| time (UTC) | temp F | wind direction | speed MPH | gust MPH | rain 1hr in | rain 24hr in | rain mn in | humidity % | barometer mb |
| 20260507171509 | 0 | 0.0 | 4.0 | 0.00 | 0.00 | 0.00 | 1005.4 | ||
| 20260507170438 | 0 | 1.0 | 4.0 | 0.00 | 0.00 | 0.00 | 1005.6 | ||
| 20260507165407 | 0 | 0.0 | 6.0 | 0.00 | 0.00 | 0.00 | 1005.6 | ||
| 20260507164330 | 0 | 1.0 | 3.0 | 0.00 | 0.00 | 0.00 | 1005.5 | ||
| 20260507163301 | 0 | 2.0 | 3.0 | 0.00 | 0.00 | 0.00 | 1005.6 | ||
| 20260507162231 | 0 | 1.0 | 4.0 | 0.00 | 0.00 | 0.00 | 1005.5 | ||
| 20260507161201 | 0 | 3.0 | 6.0 | 0.00 | 0.00 | 0.00 | 1005.5 | ||
| 20260507160130 | 0 | 2.0 | 7.0 | 0.00 | 0.00 | 0.00 | 1005.4 | ||
| 20260507155048 | 0 | 3.0 | 5.0 | 0.00 | 0.00 | 0.00 | 1005.3 | ||
| 20260507154019 | 0 | 2.0 | 6.0 | 0.00 | 0.00 | 0.00 | 1005.4 | ||
| 20260507152949 | 0 | 0.0 | 7.0 | 0.00 | 0.00 | 0.00 | 1005.5 | ||
| 20260507151920 | 0 | 4.0 | 7.0 | 0.00 | 0.00 | 0.00 | 1005.3 | ||
| 20260507150850 | 0 | 2.0 | 6.0 | 0.00 | 0.00 | 0.00 | 1005.4 | ||
| 20260507145820 | 0 | 2.0 | 7.0 | 0.00 | 0.00 | 0.00 | 1005.5 | ||
| 20260507144749 | 0 | 2.0 | 9.0 | 0.00 | 0.00 | 0.00 | 1005.5 | ||
| 20260507143718 | 0 | 4.0 | 8.0 | 0.00 | 0.00 | 0.00 | 1005.4 | ||
| 20260507142648 | 0 | 2.0 | 6.0 | 0.00 | 0.00 | 0.00 | 1005.5 | ||
| 20260507141617 | 0 | 2.0 | 9.0 | 0.00 | 0.00 | 0.00 | 1005.6 | ||
| 20260507140547 | 0 | 3.0 | 9.0 | 0.00 | 0.00 | 0.00 | 1005.5 | ||
| 20260507135517 | 0 | 4.0 | 8.0 | 0.00 | 0.00 | 0.00 | 1005.6 | ||
| 20260507134445 | 0 | 4.0 | 7.0 | 0.00 | 0.00 | 0.00 | 1005.7 | ||
| 20260507133414 | 0 | 4.0 | 8.0 | 0.00 | 0.00 | 0.00 | 1005.8 | ||
| 20260507132342 | 0 | 7.0 | 10.0 | 0.00 | 0.00 | 0.00 | 1006.0 | ||
| 20260507131312 | 0 | 4.0 | 8.0 | 0.00 | 0.00 | 0.00 | 1006.1 | ||
| 20260507130241 | 0 | 1.0 | 6.0 | 0.00 | 0.00 | 0.00 | 1006.0 | ||
| 20260507125210 | 0 | 4.0 | 7.0 | 0.00 | 0.00 | 0.00 | 1006.0 | ||
| 20260507124139 | 0 | 4.0 | 7.0 | 0.00 | 0.00 | 0.00 | 1005.9 | ||
| 20260507123109 | 0 | 2.0 | 7.0 | 0.00 | 0.00 | 0.00 | 1005.8 | ||
| 20260507122041 | 0 | 4.0 | 6.0 | 0.00 | 0.00 | 0.00 | 1005.7 | ||
| 20260507121011 | 0 | 4.0 | 7.0 | 0.00 | 0.00 | 0.00 | 1005.6 | ||
| 20260507115941 | 0 | 4.0 | 6.0 | 0.00 | 0.00 | 0.00 | 1005.5 | ||
| 20260507114911 | 0 | 2.0 | 5.0 | 0.00 | 0.00 | 0.00 | 1005.6 | ||
| 20260507113839 | 0 | 1.0 | 8.0 | 0.00 | 0.00 | 0.00 | 1005.6 | ||
| 20260507112809 | 0 | 2.0 | 6.0 | 0.00 | 0.00 | 0.00 | 1005.6 | ||
| 20260507111739 | 0 | 3.0 | 6.0 | 0.00 | 0.00 | 0.00 | 1005.9 | ||
| 20260507110709 | 0 | 2.0 | 7.0 | 0.00 | 0.00 | 0.00 | 1006.0 | ||
| 20260507105637 | 0 | 1.0 | 4.0 | 0.00 | 0.00 | 0.00 | 1005.9 | ||
| 20260507104605 | 0 | 1.0 | 5.0 | 0.00 | 0.00 | 0.00 | 1006.0 | ||
| 20260507103529 | 0 | 4.0 | 6.0 | 0.00 | 0.00 | 0.00 | 1005.9 | ||
| 20260507102452 | 0 | 1.0 | 4.0 | 0.00 | 0.00 | 0.00 | 1005.8 | ||
| 20260507101421 | 0 | 1.0 | 4.0 | 0.00 | 0.00 | 0.00 | 1005.9 | ||
| 20260507100351 | 0 | 1.0 | 4.0 | 0.00 | 0.00 | 0.00 | 1005.8 | ||
| 20260507095319 | 0 | 2.0 | 6.0 | 0.00 | 0.00 | 0.00 | 1005.9 | ||
| 20260507094246 | 0 | 5.0 | 8.0 | 0.00 | 0.00 | 0.00 | 1005.8 | ||
| 20260507093216 | 0 | 2.0 | 5.0 | 0.00 | 0.00 | 0.00 | 1005.8 | ||
| 20260507092147 | 0 | 3.0 | 10.0 | 0.00 | 0.00 | 0.00 | 1005.8 | ||
| 20260507091117 | 0 | 2.0 | 6.0 | 0.00 | 0.00 | 0.00 | 1005.6 | ||
| 20260507090047 | 0 | 4.0 | 9.0 | 0.00 | 0.00 | 0.00 | 1005.4 | ||
| 20260507085018 | 0 | 4.0 | 6.0 | 0.00 | 0.00 | 0.00 | 1005.3 | ||
| 20260507083947 | 0 | 0.0 | 6.0 | 0.00 | 0.00 | 0.00 | 1005.1 | ||
| 20260507082916 | 0 | 2.0 | 8.0 | 0.00 | 0.00 | 0.00 | 1005.0 | ||
| 20260507081847 | 0 | 4.0 | 9.0 | 0.00 | 0.00 | 0.00 | 1005.0 | ||
| 20260507080818 | 0 | 3.0 | 8.0 | 0.00 | 0.00 | 0.00 | 1004.9 | ||
| 20260507075748 | 0 | 3.0 | 6.0 | 0.00 | 0.00 | 0.00 | 1004.9 | ||
| 20260507074718 | 0 | 0.0 | 3.0 | 0.00 | 0.00 | 0.00 | 1005.0 | ||
| 20260507073649 | 0 | 3.0 | 5.0 | 0.00 | 0.00 | 0.00 | 1004.9 | ||
| 20260507072619 | 0 | 2.0 | 3.0 | 0.00 | 0.00 | 0.00 | 1004.9 | ||
| 20260507071550 | 0 | 0.0 | 1.0 | 0.00 | 0.00 | 0.00 | 1004.9 | ||
| 20260507070521 | 0 | 0.0 | 0.0 | 0.00 | 0.00 | 0.00 | 1004.7 | ||
| 20260507065040 | 0 | 0.0 | 0.0 | 0.00 | 0.00 | 0.00 | 1004.6 | ||
| 20260507064011 | 0 | 0.0 | 1.0 | 0.00 | 0.00 | 0.00 | 1004.6 | ||
| 20260507062942 | 0 | 0.0 | 1.0 | 0.00 | 0.00 | 0.00 | 1004.5 | ||
| 20260507061913 | 0 | 0.0 | 0.0 | 0.00 | 0.00 | 0.00 | 1004.4 | ||
| 20260507060639 | 0 | 0.0 | 0.0 | 0.00 | 0.00 | 0.00 | 1004.2 | ||
| 20260507055400 | 0 | 0.0 | 0.0 | 0.00 | 0.00 | 0.00 | 1004.1 | ||
| 20260507054332 | 0 | 0.0 | 0.0 | 0.00 | 0.00 | 0.00 | 1004.0 | ||
| 20260507052337 | 0 | 0.0 | 0.0 | 0.00 | 0.00 | 0.00 | 1004.0 | ||
| 20260507051309 | 0 | 0.0 | 0.0 | 0.00 | 0.00 | 0.00 | 1003.9 | ||
| 20260507050240 | 0 | 0.0 | 0.0 | 0.00 | 0.00 | 0.00 | 1003.7 | ||
| 20260507044902 | 0 | 0.0 | 0.0 | 0.00 | 0.00 | 0.00 | 1003.6 | ||
| 20260507043628 | 0 | 0.0 | 0.0 | 0.00 | 0.00 | 0.00 | 1003.4 | ||
| 20260507042559 | 0 | 0.0 | 0.0 | 0.00 | 0.00 | 0.00 | 1003.5 | ||
| 20260507041528 | 0 | 0.0 | 0.0 | 0.00 | 0.00 | 0.00 | 1003.5 | ||
| 20260507040500 | 0 | 0.0 | 0.0 | 0.00 | 0.00 | 0.00 | 1003.5 | ||
| 20260507035430 | 0 | 0.0 | 1.0 | 0.00 | 0.00 | 0.00 | 1003.5 | ||
| 20260507034400 | 0 | 0.0 | 0.0 | 0.00 | 0.00 | 0.00 | 1003.3 | ||
| 20260507033332 | 0 | 0.0 | 0.0 | 0.00 | 0.00 | 0.00 | 1003.3 | ||
| 20260507032305 | 0 | 0.0 | 0.0 | 0.00 | 0.00 | 0.00 | 1003.1 | ||
| 20260507031232 | 0 | 0.0 | 1.0 | 0.00 | 0.00 | 0.00 | 1003.1 | ||
| 20260507030203 | 0 | 0.0 | 0.0 | 0.00 | 0.00 | 0.00 | 1003.3 | ||
| 20260507024928 | 0 | 0.0 | 0.0 | 0.00 | 0.00 | 0.00 | 1003.1 | ||
| 20260507023858 | 0 | 0.0 | 0.0 | 0.00 | 0.00 | 0.00 | 1003.1 | ||
| 20260507022515 | 0 | 0.0 | 0.0 | 0.00 | 0.00 | 0.00 | 1003.0 | ||
| 20260507021138 | 0 | 0.0 | 1.0 | 0.00 | 0.00 | 0.00 | 1003.0 | ||
| 20260507020109 | 0 | 0.0 | 0.0 | 0.00 | 0.00 | 0.00 | 1002.8 | ||
| 20260507015041 | 0 | 0.0 | 2.0 | 0.00 | 0.00 | 0.00 | 1002.8 | ||
| 20260507014013 | 0 | 1.0 | 2.0 | 0.00 | 0.00 | 0.00 | 1002.8 | ||
| 20260507012945 | 0 | 1.0 | 2.0 | 0.00 | 0.00 | 0.00 | 1002.6 | ||
| 20260507011917 | 0 | 0.0 | 0.0 | 0.00 | 0.00 | 0.00 | 1002.5 | ||
| 20260507010436 | 0 | 0.0 | 0.0 | 0.00 | 0.00 | 0.00 | 1002.7 | ||
| 20260507005306 | 0 | 0.0 | 1.0 | 0.00 | 0.00 | 0.00 | 1002.7 | ||
| 20260507004237 | 0 | 0.0 | 0.0 | 0.00 | 0.00 | 0.00 | 1002.7 | ||
| 20260507003209 | 0 | 0.0 | 0.0 | 0.00 | 0.00 | 0.00 | 1002.8 | ||
| 20260507001625 | 0 | 0.0 | 0.0 | 0.00 | 0.00 | 0.00 | 1002.7 | ||
| 20260507000556 | 0 | 0.0 | 0.0 | 0.00 | 0.00 | 0.00 | 1002.6 | ||
| 20260506235527 | 0 | 0.0 | 1.0 | 0.00 | 0.00 | 0.00 | 1002.5 | ||
| 20260506234458 | 0 | 0.0 | 0.0 | 0.00 | 0.00 | 0.00 | 1002.7 | ||
| 20260506233429 | 0 | 0.0 | 1.0 | 0.00 | 0.00 | 0.00 | 1002.7 | ||
| 20260506232400 | 0 | 0.0 | 0.0 | 0.00 | 0.00 | 0.00 | 1002.8 | ||
| 20260506230406 | 0 | 0.0 | 0.0 | 0.00 | 0.00 | 0.00 | 1002.8 | ||
| 20260506224822 | 0 | 0.0 | 1.0 | 0.00 | 0.00 | 0.00 | 1003.0 | ||
| 20260506223754 | 0 | 0.0 | 0.0 | 0.00 | 0.00 | 0.00 | 1002.9 | ||
| 20260506222623 | 0 | 0.0 | 1.0 | 0.00 | 0.00 | 0.00 | 1002.8 | ||
| 20260506221349 | 0 | 0.0 | 0.0 | 0.00 | 0.00 | 0.00 | 1002.8 | ||
| 20260506220217 | 0 | 0.0 | 1.0 | 0.00 | 0.00 | 0.00 | 1002.7 | ||
| 20260506215146 | 0 | 0.0 | 1.0 | 0.00 | 0.00 | 0.00 | 1002.7 | ||
| 20260506213604 | 0 | 0.0 | 2.0 | 0.00 | 0.00 | 0.00 | 1002.6 | ||
| 20260506212535 | 0 | 1.0 | 3.0 | 0.00 | 0.00 | 0.00 | 1002.7 | ||
| 20260506211506 | 0 | 0.0 | 1.0 | 0.00 | 0.00 | 0.00 | 1002.8 | ||
| 20260506210437 | 0 | 0.0 | 1.0 | 0.00 | 0.00 | 0.00 | 1002.7 | ||
| 20260506205313 | 0 | 0.0 | 1.0 | 0.00 | 0.00 | 0.00 | 1002.7 | ||
| 20260506204241 | 0 | 1.0 | 4.0 | 0.00 | 0.00 | 0.00 | 1002.6 | ||
| 20260506203210 | 0 | 2.0 | 4.0 | 0.00 | 0.00 | 0.00 | 1002.5 | ||
| 20260506202139 | 0 | 2.0 | 8.0 | 0.00 | 0.00 | 0.00 | 1002.4 | ||
| 20260506201110 | 0 | 4.0 | 11.0 | 0.00 | 0.00 | 0.00 | 1002.4 | ||
| 20260506200039 | 0 | 4.0 | 11.0 | 0.00 | 0.00 | 0.00 | 1002.1 | ||
| 20260506195008 | 0 | 3.0 | 9.0 | 0.00 | 0.00 | 0.00 | 1002.2 | ||
| 20260506193936 | 0 | 2.0 | 12.0 | 0.00 | 0.00 | 0.00 | 1002.1 | ||
| 20260506192902 | 0 | 4.0 | 7.0 | 0.00 | 0.00 | 0.00 | 1001.9 | ||
| 20260506191831 | 0 | 4.0 | 6.0 | 0.00 | 0.00 | 0.00 | 1001.6 | ||
| 20260506190800 | 0 | 2.0 | 7.0 | 0.00 | 0.00 | 0.00 | 1001.4 | ||
| 20260506185730 | 0 | 3.0 | 10.0 | 0.00 | 0.00 | 0.00 | 1001.2 | ||
| 20260506184701 | 0 | 4.0 | 9.0 | 0.00 | 0.00 | 0.00 | 1001.1 | ||
| 20260506183632 | 0 | 3.0 | 8.0 | 0.00 | 0.00 | 0.00 | 1000.9 | ||
| 20260506182558 | 0 | 5.0 | 8.0 | 0.00 | 0.00 | 0.00 | 1000.9 | ||
| 20260506181529 | 0 | 4.0 | 9.0 | 0.00 | 0.00 | 0.00 | 1001.0 | ||
| 20260506180500 | 0 | 4.0 | 9.0 | 0.00 | 0.00 | 0.00 | 1000.9 | ||
| 20260506175430 | 0 | 4.0 | 10.0 | 0.00 | 0.00 | 0.00 | 1000.9 | ||
| 20260506174400 | 0 | 5.0 | 8.0 | 0.00 | 0.00 | 0.00 | 1000.8 | ||
| 20260506173330 | 0 | 7.0 | 10.0 | 0.00 | 0.00 | 0.00 | 1000.7 | ||
| 20260506172259 | 0 | 5.0 | 10.0 | 0.00 | 0.00 | 0.00 | 1000.7 |